Regional Weather Roundup
Issued by NWS Charleston, SC

Current Version | Previous Version | Graphics & Text | Print | Product List | Glossary Off
Versions: 1 2 3 4 5 6 7 8 9 10 11 12 13 14 15 16 17 18 19 20 21 22 23 24 25 26 27 28 29 30 31 32 33 34 35 36 37 38 39 40 41 42 43 44 45 46 47 48 49 50

000
ASUS42 KCHS 231442
RWRCHS

REGIONAL WEATHER ROUNDUP
NATIONAL WEATHER SERVICE CHARLESTON SC
1000 AM EDT SAT SEP 23 2017

NOTE: "FAIR" INDICATES FEW OR NO CLOUDS BELOW 12,000 FEET WITH NO
SIGNIFICANT WEATHER AND/OR OBSTRUCTIONS TO VISIBILITY.

NOT ALL STATIONS ARE QUALITY CONTROLLED. USE DATA WITH CAUTION...
ESPECIALLY DEWPOINT OBSERVATIONS.

SCZ027-030-031-034>040-042>050-231500-
...SOUTHEAST SOUTH CAROLINA...

CITY           SKY/WX    TMP DP  RH WIND       PRES   REMARKS
N CHARLESTON   MOSUNNY   78  74  87 NE10      30.03S
WATERFRONT PRK   N/A     78  74  87 N8        29.86S
JOHNS ISLAND   FAIR      81  75  83 N7        30.03S
PINOPOLIS        N/A     73  73 100 NE6       29.97R
MONCKS CORNER  FAIR      77  73  88 E7        30.04S
SUMMERVILLE    CLOUDY    75  72  88 NE3       30.05S
BEAUFORT MCAS  MOSUNNY   80  76  87 N9        30.03R
BEAUFORT ARPT  FAIR      79  73  83 NE9       30.02S HAZE
HILTON HEAD IS MOSUNNY   81  75  83 NE9       30.02S
WALTERBORO     MOSUNNY   77  72  83 NE7       30.05S
ALLENDALE      NOT AVBL

...SOUTHERN MIDLANDS AND PEE DEE...

CITY           SKY/WX    TMP DP  RH WIND       PRES   REMARKS
GEORGETOWN     FAIR      79  75  89 NE6       30.05S
KINGSTREE      FAIR      79  70  73 CALM      30.05S
ORANGEBURG     SUNNY     79  67  66 NE7       30.05R
BARNWELL       FAIR      81  72  74 E5        30.05S
AIKEN          FAIR      79  68  69 NE6       30.09S
MANNING        FAIR      79  64  61 MISG      30.05S
COLUMBIA       SUNNY     78  70  76 CALM      30.05R
SUMTER         SUNNY     80  69  70 N3        30.03R
FLORENCE       SUNNY     78  69  73 NE5       30.05S
MYRTLE BEACH   MOSUNNY   77  72  84 N7        30.06R
N MYRTLE BEACH MOSUNNY   75  73  93 N8        30.04R

$$

GAZ063-065-086>088-099>101-113>116-118-119-134>141-150-231500-
...SOUTHEAST GEORGIA...

CITY           SKY/WX    TMP DP  RH WIND       PRES   REMARKS
SAVANNAH ARPT  PTSUNNY   76  74  93 NE9       30.03R
HUNTER AAF     CLOUDY    77  73  88 N6        30.00R
FORT STEWART   CLOUDY    73  72  94 N7        30.00R
STATESBORO     MOSUNNY   79  69  71 NE3       30.04S
SYLVANIA       MOSUNNY   79  75  89 SE6       30.05S
CLAXTON        FAIR      80  74  81 NE8       30.03S

...CSRA...CENTRAL AND FAR SOUTHEAST GEORGIA...

CITY           SKY/WX    TMP DP  RH WIND       PRES   REMARKS
THOMSON        SUNNY     75  70  84 E5        30.11S
AUGUSTA-BUSH   SUNNY     79  72  79 N3        30.04S
AUGUSTA-DANIEL SUNNY     79  70  74 N3        30.06R
SWAINSBORO     FAIR      79  70  73 NE5       30.05S
VIDALIA        SUNNY     81  72  74 NE9       30.03F
EASTMAN        FAIR      82  61  48 E8        30.05F
HAZLEHURST     FAIR      79  65  61 E7        30.02S
ALMA           MOSUNNY   77  72  84 VRB5      30.01S HAZE
WAYCROSS       PTSUNNY   78  74  88 E8        30.01S
JESUP          NOT AVBL
BAXLEY         FAIR      77  73  88 NE7       30.02R
BRUNSWICK      CLOUDY    75  72  88 N5        30.00S
SAINT SIMONS   LGT RAIN  77  75  93 E7        29.99S FOG

$$

SCZ027-028-034-036>038-045-046-048>050-GAZ119-141-231500-
...LAKE AND SUPPLEMENTAL COASTAL OBSERVATIONS...

STATION/POSITION TIME  TEMP    WIND        PRES    WAVE   SWELL
                       AIR SEA DIR/SP/G            HT/PER HT/PER/DIR
                 (UTC) (F)     (DEG/KT/KT) (MB)    (FT/S) (FT/S/D)
WINYAH BAY       1330   77      10/  4     1017.0S
LAKE MURRAY      1420   80      CALM  /  3 1016.9
ACE BASIN NERRS  1345   78      10/  2     1016.0S
FORT PULASKI     1400   79 80   50/  7/ 10 1016.7
SAPELO ISLAND    1400   78        CALM     1016.0

$$

ANZ835-935-AMZ111-154-330-350-352-354-370-450-454-472-231500-
...C-MAN AND BUOY OBSERVATIONS...

STATION/POSITION TIME  TEMP    WIND        PRES    WAVE   SWELL
                       AIR SEA DIR/SP/G            HT/PER HT/PER/DIR
                 (UTC) (F)     (DEG/KT/KT) (MB)    (FT/S) (FT/S/D)
BUOY 41004       1410   80 82   50/ 14/ 17 1015.8
BUOY 41008       1350   78 80  100/ 10/ 14 1015.2R   5/15   5/ 80/15
FOLLY BEACH CMAN 1400   79      30/ 10/ 12 1017.4R
CAPERS NEARSHORE 1408   77 81   40/ 12/ 17 1016.4R
FRIPP NEARSHORE  1408   78      50/ 12/ 16 1023.8R


STATION/POSITION TIME  TEMP    WIND        PRES    WAVE   SWELL
                       AIR SEA DIR/SP/G            HT/PER HT/PER/DIR
                 (UTC) (F)     (DEG/KT/KT) (MB)    (FT/S) (FT/S/D)
5E ST. MARYS GA  1400      82                N/A     5/11   3/110/11
FRYING PAN BUOY  1410   80 82   20/ 14/ 16 1016.3
BUOY 41025       1350   76 76   50/  6/  8 1016.9R   8/12   8/160/12
CAPE LOOKOUT NC  1400   77     340/  5/  7 1016.9R
BUOY 41002       1350   79 79   60/ 17/ 19 1014.5R   9/14   8/130/14
BUOY 41010       1410           60/ 14/ 17 1013.8
ST AUGUSTINE FL  1400   79 82   30/ 15/ 15 1014.5R


$$




USA.gov is the U.S. government's official web portal to all federal, state and local government web resources and services.